,,Stat1,,Stat2,,Stat3,,Stat4,,Wind1,,Wind1,
time,status,PR1M_SUM,status,RH1M_AVG,status,SR1M_AVG,status,TA1M_AVG,status,W1dAve1m,status,W1sAve1m,
2000-02-20, 00:01:00,VALID,0,VALID,72.0771,VALID,0,VALID,20.025,VALID,222,VALID,0,
2000-02-20, 00:02:00,VALID,0,VALID,72.2182,VALID,0,VALID,20.0481,VALID,222,VALID,0,
2000-02-20, 00:03:00,VALID,0,VALID,73.3589,VALID,0,VALID,20.0474,VALID,222,VALID,0,
2000-02-20, 00:04:00,VALID,0,VALID,75.8792,VALID,0.0509425,VALID,20.0446,VALID,222,VALID,0,
2000-02-20, 00:05:00,VALID,0,VALID,74.6623,VALID,0,VALID,19.9609,VALID,199,VALID,0,
2000-02-20, 00:06:00,VALID,0,VALID,73.3195,VALID,0,VALID,19.8866,VALID,194,VALID,0,
2000-02-20, 00:07:00,VALID,0,VALID,73.8332,VALID,0,VALID,19.8284,VALID,194,VALID,0,
2000-02-20, 00:08:00,VALID,0,VALID,73.9743,VALID,-0.0169808,VALID,19.7835,VALID,194,VALID,0,
2000-02-20, 00:09:00,VALID,0,VALID,76.7134,VALID,0.0169808,VALID,19.7479,VALID,166,VALID,0,
2000-02-20, 00:10:00,VALID,0,VALID,76.7566,VALID,0,VALID,19.6662,VALID,161,VALID,0,
2000-02-20, 00:11:00,VALID,0,VALID,77.0491,VALID,0,VALID,19.6177,VALID,161,VALID,0,
2000-02-20, 00:12:00,VALID,0,VALID,75.5982,VALID,0,VALID,19.6023,VALID,161,VALID,0,
2000-02-20, 00:13:00,VALID,0,VALID,80.2777,VALID,0,VALID,19.6088,VALID,159,VALID,0,
2000-02-20, 00:14:00,VALID,0,VALID,80.2497,VALID,0.0169808,VALID,19.5248,VALID,126,VALID,0.331836,
2000-02-20, 00:15:00,VALID,0,VALID,76.9626,VALID,0,VALID,19.4048,VALID,124,VALID,0.557492,
2000-02-20, 00:16:00,VALID,0,VALID,76.2937,VALID,0,VALID,19.4018,VALID,124,VALID,0.490287,
2000-02-20, 00:17:00,VALID,0,VALID,74.9039,VALID,0.0169808,VALID,19.4431,VALID,124,VALID,0.564844,
2000-02-20, 00:18:01,VALID,0,VALID,75.7825,VALID,0,VALID,19.5703,VALID,130,VALID,0.41887,
2000-02-20, 00:19:00,VALID,0,VALID,73.8217,VALID,0,VALID,19.6287,VALID,130,VALID,0.432771,
2000-02-20, 00:20:00,VALID,0,VALID,75.0081,VALID,0,VALID,19.7087,VALID,129,VALID,0.665582,
2000-02-20, 00:21:00,VALID,0,VALID,75.2281,VALID,0,VALID,19.7507,VALID,115,VALID,0.654241,
2000-02-20, 00:22:00,VALID,0,VALID,77.1152,VALID,0,VALID,19.7604,VALID,105,VALID,0.860609,
2000-02-20, 00:23:00,VALID,0,VALID,77.7128,VALID,0.0169808,VALID,19.6215,VALID,105,VALID,0.753495,
2000-02-20, 00:24:00,VALID,0,VALID,77.4967,VALID,0,VALID,19.5019,VALID,95,VALID,0.81799,
2000-02-20, 00:25:00,VALID,0,VALID,78.1541,VALID,0.0169808,VALID,19.4791,VALID,101,VALID,0.844161,
2000-02-20, 00:26:00,VALID,0,VALID,76.7553,VALID,0,VALID,19.4438,VALID,102,VALID,0.785773,
2000-02-20, 00:27:00,VALID,0,VALID,75.8944,VALID,-0.0849042,VALID,19.4547,VALID,98,VALID,0.648819,
2000-02-20, 00:28:00,VALID,0,VALID,76.1818,VALID,-0.0679233,VALID,19.5099,VALID,98,VALID,0.76543,
2000-02-20, 00:29:01,VALID,0,VALID,76.4107,VALID,-0.101885,VALID,19.5392,VALID,101,VALID,0.798931,
2000-02-20, 00:30:00,VALID,0,VALID,76.7617,VALID,-0.101885,VALID,19.5325,VALID,109,VALID,0.688672,
2000-02-20, 00:31:00,VALID,0,VALID,74.8543,VALID,-0.101885,VALID,19.529,VALID,94,VALID,0.606337,
2000-02-20, 00:32:00,VALID,0,VALID,74.146,VALID,-0.0849042,VALID,19.6103,VALID,109,VALID,0.380469,
2000-02-20, 00:33:00,VALID,0,VALID,73.5801,VALID,-0.0509425,VALID,19.691,VALID,120,VALID,0.322716,
2000-02-20, 00:34:00,VALID,0,VALID,73.2915,VALID,-0.0849042,VALID,19.7618,VALID,117,VALID,0.290296,
2000-02-20, 00:35:00,VALID,0,VALID,73.2228,VALID,-0.0849042,VALID,19.8202,VALID,109,VALID,0.43316,
2000-02-20, 00:36:00,VALID,0,VALID,76.0178,VALID,-0.0509425,VALID,19.8324,VALID,101,VALID,0.855357,
2000-02-20, 00:37:00,VALID,0,VALID,74.8594,VALID,-0.0849042,VALID,19.7258,VALID,101,VALID,0.648438,
2000-02-20, 00:38:00,VALID,0,VALID,74.9268,VALID,-0.101885,VALID,19.6779,VALID,92,VALID,0.667969,
2000-02-20, 00:39:00,VALID,0,VALID,74.207,VALID,-0.0849042,VALID,19.662,VALID,96,VALID,0.829603,
2000-02-20, 00:40:01,VALID,0,VALID,74.0341,VALID,-0.101885,VALID,19.7233,VALID,100,VALID,0.878906,
2000-02-20, 00:41:00,VALID,0,VALID,74.5542,VALID,-0.118866,VALID,19.7586,VALID,98,VALID,0.646176,
2000-02-20, 00:42:00,VALID,0,VALID,76.0598,VALID,0,VALID,19.7156,VALID,97,VALID,0.74657,
2000-02-20, 00:43:00,VALID,0,VALID,77.8616,VALID,-0.0169808,VALID,19.6311,VALID,112,VALID,0.445508,
2000-02-20, 00:44:00,VALID,0,VALID,76.9461,VALID,0.0339617,VALID,19.573,VALID,79,VALID,0.245271,
2000-02-20, 00:45:00,VALID,0,VALID,76.4972,VALID,0,VALID,19.5576,VALID,103,VALID,0.0792969,
2000-02-20, 00:46:00,VALID,0,VALID,75.8334,VALID,0,VALID,19.541,VALID,131,VALID,0.172526,
2000-02-20, 00:47:00,VALID,0,VALID,76.15,VALID,-0.0169808,VALID,19.574,VALID,131,VALID,0.214648,
2000-02-20, 00:48:00,VALID,0,VALID,77.2868,VALID,-0.0169808,VALID,19.5832,VALID,131,VALID,0.204928,
2000-02-20, 00:49:00,VALID,0,VALID,76.3726,VALID,-0.0169808,VALID,19.574,VALID,131,VALID,0.216077,
2000-02-20, 00:50:00,VALID,0,VALID,78.0574,VALID,-0.0509425,VALID,19.5899,VALID,131,VALID,0.373264,
2000-02-20, 00:51:01,VALID,0,VALID,77.0084,VALID,-0.0339617,VALID,19.5832,VALID,132,VALID,0.332589,
2000-02-20, 00:52:00,VALID,0,VALID,77.2411,VALID,-0.0169808,VALID,19.5834,VALID,132,VALID,0.34889,
2000-02-20, 00:53:00,VALID,0,VALID,76.5035,VALID,0,VALID,19.5733,VALID,132,VALID,0.354441,
2000-02-20, 00:54:00,VALID,0,VALID,78.5546,VALID,0.0339617,VALID,19.5767,VALID,132,VALID,0.349029,
2000-02-20, 00:55:00,VALID,0,VALID,76.6472,VALID,0,VALID,19.5315,VALID,126,VALID,0,
2000-02-20, 00:56:00,VALID,0,VALID,76.8507,VALID,0,VALID,19.5573,VALID,117,VALID,0,
2000-02-20, 00:57:00,VALID,0,VALID,76.9715,VALID,0.0169808,VALID,19.5665,VALID,117,VALID,0,
2000-02-20, 00:58:00,VALID,0,VALID,77.2182,VALID,0,VALID,19.5894,VALID,117,VALID,0,
2000-02-20, 00:59:00,VALID,0,VALID,78.1452,VALID,0,VALID,19.6279,VALID,117,VALID,0,
2000-02-20, 01:00:00,VALID,0,VALID,77.559,VALID,0,VALID,19.6381,VALID,117,VALID,0,
2000-02-20, 01:01:00,VALID,0,VALID,76.6396,VALID,0,VALID,19.6053,VALID,125,VALID,0,
2000-02-20, 01:02:01,VALID,0,VALID,75.4799,VALID,0,VALID,19.5894,VALID,130,VALID,0,
2000-02-20, 01:03:00,VALID,0,VALID,77.737,VALID,0.0169808,VALID,19.6185,VALID,171,VALID,0,
2000-02-20, 01:04:00,VALID,0,VALID,75.5308,VALID,0,VALID,19.6088,VALID,235,VALID,0,
2000-02-20, 01:05:00,VALID,0,VALID,73.8713,VALID,0,VALID,19.6309,VALID,235,VALID,0,
2000-02-20, 01:06:00,VALID,0,VALID,74.174,VALID,0,VALID,19.7318,VALID,235,VALID,0,
2000-02-20, 01:07:00,VALID,0,VALID,79.7334,VALID,-0.0169808,VALID,19.8061,VALID,225,VALID,0,
2000-02-20, 01:08:00,VALID,0,VALID,77.3314,VALID,0,VALID,19.7477,VALID,198,VALID,0,
2000-02-20, 01:09:00,VALID,0,VALID,76.7515,VALID,0,VALID,19.6925,VALID,246,VALID,0,
2000-02-20, 01:10:00,VALID,0,VALID,75.8143,VALID,-0.0169808,VALID,19.6766,VALID,256,VALID,0.771998,
2000-02-20, 01:11:00,VALID,0,VALID,75.7889,VALID,0,VALID,19.6634,VALID,253,VALID,0.672286,
2000-02-20, 01:12:00,VALID,0,VALID,75.8639,VALID,0,VALID,19.6577,VALID,251,VALID,0.415015,
2000-02-20, 01:13:01,VALID,0,VALID,75.5956,VALID,0,VALID,19.6443,VALID,268,VALID,0.508789,
2000-02-20, 01:14:00,VALID,0,VALID,75.5956,VALID,0.0169808,VALID,19.6565,VALID,306,VALID,0.607525,
2000-02-20, 01:15:00,VALID,0,VALID,76.2149,VALID,0.0169808,VALID,19.7445,VALID,286,VALID,0.347461,
2000-02-20, 01:16:00,VALID,0,VALID,76.8736,VALID,0.0169808,VALID,19.8088,VALID,303,VALID,0.278863,
2000-02-20, 01:17:00,VALID,0,VALID,80.0259,VALID,-0.0339617,VALID,19.8379,VALID,329,VALID,0.201172,
2000-02-20, 01:18:00,VALID,0,VALID,82.8565,VALID,0,VALID,19.7186,VALID,82,VALID,0.297676,
2000-02-20, 01:19:00,VALID,0,VALID,82.5869,VALID,0,VALID,19.5059,VALID,96,VALID,0.499589,
2000-02-20, 01:20:00,VALID,0,VALID,82.8552,VALID,0,VALID,19.3114,VALID,99,VALID,0.511936,
2000-02-20, 01:21:00,VALID,0,VALID,81.3636,VALID,0.0169808,VALID,19.1792,VALID,99,VALID,0.320089,
2000-02-20, 01:22:00,VALID,0,VALID,82.3059,VALID,0,VALID,19.1049,VALID,99,VALID,0.502467,
2000-02-20, 01:23:00,VALID,0,VALID,82.0312,VALID,0,VALID,19.0239,VALID,99,VALID,0.605674,
2000-02-20, 01:24:01,VALID,0,VALID,82.0236,VALID,-0.0169808,VALID,19.0083,VALID,99,VALID,0.52386,
2000-02-20, 01:25:00,VALID,0,VALID,79.6431,VALID,0,VALID,18.9889,VALID,98,VALID,0.482936,
2000-02-20, 01:26:00,VALID,0,VALID,81.0991,VALID,0.0169808,VALID,19.0209,VALID,98,VALID,0.549959,
2000-02-20, 01:27:00,VALID,0,VALID,80.6642,VALID,0,VALID,19.0465,VALID,109,VALID,0.426639,
2000-02-20, 01:28:00,VALID,0,VALID,79.4855,VALID,0,VALID,19.0625,VALID,121,VALID,0.216992,
2000-02-20, 01:29:00,VALID,0,VALID,78.4555,VALID,0,VALID,19.1407,VALID,121,VALID,0.254934,
2000-02-20, 01:30:00,VALID,0,VALID,79.3799,VALID,0.0169808,VALID,19.2341,VALID,143,VALID,0.175195,
2000-02-20, 01:31:00,VALID,0,VALID,78.9857,VALID,-0.0169808,VALID,19.2823,VALID,149,VALID,0.228516,
2000-02-20, 01:32:00,VALID,0,VALID,79.0811,VALID,0,VALID,19.3375,VALID,149,VALID,0.0832031,
2000-02-20, 01:33:01,VALID,0,VALID,79.3392,VALID,0.0339617,VALID,19.3631,VALID,149,VALID,0,
2000-02-20, 01:34:01,VALID,0,VALID,77.751,VALID,0,VALID,19.3695,VALID,149,VALID,0.0931332,
2000-02-20, 01:35:01,VALID,0,VALID,78.0702,VALID,-0.0339617,VALID,19.3802,VALID,149,VALID,0.217231,
2000-02-20, 01:36:00,VALID,0,VALID,79.1383,VALID,-0.0169808,VALID,19.3829,VALID,149,VALID,0.168304,
2000-02-20, 01:37:00,VALID,0,VALID,80.5943,VALID,-0.0169808,VALID,19.3663,VALID,149,VALID,0.170641,
2000-02-20, 01:38:00,VALID,0,VALID,80.7787,VALID,0,VALID,19.3183,VALID,133,VALID,0.354441,
2000-02-20, 01:39:00,VALID,0,VALID,84.3341,VALID,-0.0169808,VALID,19.2018,VALID,118,VALID,0.619932,
2000-02-20, 01:40:00,VALID,0,VALID,83.5648,VALID,0,VALID,19.0659,VALID,118,VALID,0.659539,
2000-02-20, 01:41:00,VALID,0,VALID,81.1563,VALID,0,VALID,18.9916,VALID,117,VALID,0.812089,
2000-02-20, 01:42:00,VALID,0,VALID,82.5589,VALID,0,VALID,18.9884,VALID,110,VALID,0.989139,
2000-02-20, 01:43:00,VALID,0,VALID,79.7321,VALID,0,VALID,19.0175,VALID,102,VALID,1.00312,
2000-02-20, 01:44:00,VALID,0,VALID,78.1452,VALID,0.0169808,VALID,19.1658,VALID,108,VALID,1.00699,
2000-02-20, 01:45:00,VALID,0,VALID,76.8787,VALID,-0.0169808,VALID,19.331,VALID,109,VALID,0.983398,
2000-02-20, 01:46:01,VALID,0,VALID,76.3916,VALID,0.0169808,VALID,19.5057,VALID,116,VALID,0.900174,
2000-02-20, 01:47:00,VALID,0,VALID,76.7566,VALID,0,VALID,19.5926,VALID,119,VALID,0.93418,
2000-02-20, 01:48:00,VALID,0,VALID,76.3026,VALID,0.0169808,VALID,19.6311,VALID,127,VALID,0.720553,
2000-02-20, 01:49:00,VALID,0,VALID,75.8944,VALID,0.0169808,VALID,19.6699,VALID,145,VALID,0.433388,
2000-02-20, 01:50:00,VALID,0,VALID,77.4242,VALID,-0.0169808,VALID,19.6893,VALID,172,VALID,0.43316,
2000-02-20, 01:51:00,VALID,0,VALID,77.9074,VALID,0,VALID,19.6769,VALID,190,VALID,0.201339,
2000-02-20, 01:52:00,VALID,0,VALID,77.737,VALID,0,VALID,19.6411,VALID,191,VALID,0,
2000-02-20, 01:53:00,VALID,0,VALID,77.3364,VALID,0,VALID,19.612,VALID,193,VALID,0,
2000-02-20, 01:54:00,VALID,0,VALID,78.3372,VALID,0,VALID,19.5929,VALID,164,VALID,0.414274,
2000-02-20, 01:55:00,VALID,0,VALID,79.1078,VALID,-0.0169808,VALID,19.5216,VALID,151,VALID,0.653783,
2000-02-20, 01:56:00,VALID,0,VALID,77.4407,VALID,0,VALID,19.4669,VALID,145,VALID,0.401727,
2000-02-20, 01:57:00,VALID,0,VALID,78.9997,VALID,0,VALID,19.4965,VALID,161,VALID,0.275724,
2000-02-20, 01:58:00,VALID,0,VALID,78.4148,VALID,-0.0169808,VALID,19.4565,VALID,205,VALID,0.537305,
2000-02-20, 01:59:00,VALID,0,VALID,77.7141,VALID,0,VALID,19.457,VALID,243,VALID,0.765008,
2000-02-20, 02:00:00,VALID,0,VALID,76.2327,VALID,-0.0169808,VALID,19.5089,VALID,280,VALID,0.416602,
2000-02-20, 02:01:00,VALID,0,VALID,75.5893,VALID,0,VALID,19.6282,VALID,160,VALID,0.355903,
2000-02-20, 02:02:00,VALID,0,VALID,79.9089,VALID,-0.0169808,VALID,19.7348,VALID,102,VALID,0.627344,
2000-02-20, 02:03:00,VALID,0,VALID,77.9633,VALID,0,VALID,19.7087,VALID,118,VALID,0.875801,
2000-02-20, 02:04:00,VALID,0,VALID,78.018,VALID,0,VALID,19.7514,VALID,98,VALID,0.744038,
2000-02-20, 02:05:00,VALID,0,VALID,78.2571,VALID,0,VALID,19.7027,VALID,113,VALID,0.297743,
2000-02-20, 02:06:00,VALID,0,VALID,78.2838,VALID,0,VALID,19.654,VALID,243,VALID,0.440402,
2000-02-20, 02:07:00,VALID,0,VALID,77.2182,VALID,-0.0169808,VALID,19.6408,VALID,274,VALID,0.175164,
2000-02-20, 02:08:00,VALID,0,VALID,79.193,VALID,0,VALID,19.6538,VALID,309,VALID,0.134663,
2000-02-20, 02:09:00,VALID,0,VALID,81.7209,VALID,0,VALID,19.6319,VALID,338,VALID,0.290329,
2000-02-20, 02:10:00,VALID,0,VALID,78.678,VALID,-0.0169808,VALID,19.538,VALID,341,VALID,0.617599,
2000-02-20, 02:11:00,VALID,0,VALID,76.253,VALID,0,VALID,19.6349,VALID,333,VALID,0.58861,
2000-02-20, 02:12:00,VALID,0,VALID,76.721,VALID,0,VALID,19.7184,VALID,313,VALID,0.411776,
2000-02-20, 02:13:00,VALID,0,VALID,75.6389,VALID,-0.0339617,VALID,19.7442,VALID,317,VALID,0.714453,
2000-02-20, 02:14:00,VALID,0,VALID,75.3159,VALID,0,VALID,19.8026,VALID,329,VALID,0.520765,
2000-02-20, 02:15:00,VALID,0,VALID,75.9339,VALID,0.0169808,VALID,19.855,VALID,346,VALID,0.398438,
2000-02-20, 02:16:00,VALID,0,VALID,80.7393,VALID,0.0169808,VALID,19.8312,VALID,334,VALID,0.265625,
2000-02-20, 02:17:00,VALID,0,VALID,80.8575,VALID,0,VALID,19.6828,VALID,334,VALID,0,
2000-02-20, 02:18:01,VALID,0,VALID,79.8517,VALID,0,VALID,19.5631,VALID,334,VALID,0,
2000-02-20, 02:19:00,VALID,0,VALID,79.5071,VALID,0,VALID,19.4987,VALID,334,VALID,0,
2000-02-20, 02:20:00,VALID,0,VALID,80.7571,VALID,0,VALID,19.4508,VALID,334,VALID,0,
2000-02-20, 02:21:00,VALID,0,VALID,81.7426,VALID,0.0169808,VALID,19.4117,VALID,334,VALID,0,
2000-02-20, 02:22:00,VALID,0,VALID,81.1551,VALID,-0.0169808,VALID,19.3765,VALID,351,VALID,0,
2000-02-20, 02:23:00,VALID,0,VALID,82.7509,VALID,0.0169808,VALID,19.2885,VALID,129,VALID,0,
2000-02-20, 02:24:00,VALID,0,VALID,80.6312,VALID,-0.0679233,VALID,19.179,VALID,128,VALID,0,
2000-02-20, 02:25:00,VALID,0,VALID,79.8123,VALID,0,VALID,19.1342,VALID,106,VALID,0.530428,
2000-02-20, 02:26:00,VALID,0,VALID,80.1009,VALID,0,VALID,19.1762,VALID,97,VALID,0.888775,
2000-02-20, 02:27:00,VALID,0,VALID,80.3196,VALID,0,VALID,19.202,VALID,99,VALID,0.841082,
2000-02-20, 02:28:00,VALID,0,VALID,81.6497,VALID,0.0169808,VALID,19.1792,VALID,101,VALID,0.869727,
2000-02-20, 02:29:00,VALID,0,VALID,79.4117,VALID,-0.0169808,VALID,19.1404,VALID,98,VALID,0.560033,
2000-02-20, 02:30:00,VALID,0,VALID,78.5585,VALID,-0.0169808,VALID,19.2217,VALID,98,VALID,0.3,
2000-02-20, 02:31:00,VALID,0,VALID,79.5618,VALID,-0.0169808,VALID,19.2985,VALID,99,VALID,0.0368924,
2000-02-20, 02:32:00,VALID,0,VALID,79.7538,VALID,0,VALID,19.3312,VALID,99,VALID,0,
2000-02-20, 02:33:00,VALID,0,VALID,78.9654,VALID,-0.0169808,VALID,19.3444,VALID,153,VALID,0.0324519,
2000-02-20, 02:34:00,VALID,0,VALID,77.8858,VALID,0,VALID,19.374,VALID,220,VALID,0,
2000-02-20, 02:35:00,VALID,0,VALID,76.0496,VALID,-0.0169808,VALID,19.415,VALID,220,VALID,0,
2000-02-20, 02:36:00,VALID,0,VALID,76.8939,VALID,-0.0169808,VALID,19.5024,VALID,268,VALID,0.146205,
2000-02-20, 02:37:00,VALID,0,VALID,78.575,VALID,0,VALID,19.6056,VALID,269,VALID,0.0538651,
2000-02-20, 02:38:00,VALID,0,VALID,76.3916,VALID,-0.0169808,VALID,19.6185,VALID,269,VALID,0.00102796,
2000-02-20, 02:39:00,VALID,0,VALID,77.1864,VALID,0,VALID,19.6311,VALID,269,VALID,0,
2000-02-20, 02:40:01,VALID,0,VALID,77.0135,VALID,-0.0169808,VALID,19.6478,VALID,269,VALID,0,
2000-02-20, 02:41:00,VALID,0,VALID,76.1996,VALID,-0.0169808,VALID,19.6605,VALID,269,VALID,0,
2000-02-20, 02:42:00,VALID,0,VALID,76.4667,VALID,0,VALID,19.7022,VALID,269,VALID,0,
2000-02-20, 02:43:00,VALID,0,VALID,77.7777,VALID,0.0339617,VALID,19.7345,VALID,269,VALID,0,
2000-02-20, 02:44:00,VALID,0,VALID,79.062,VALID,0.0679233,VALID,19.7601,VALID,269,VALID,0.0439967,
2000-02-20, 02:45:00,VALID,0,VALID,75.4265,VALID,0.0509425,VALID,19.7994,VALID,269,VALID,0.0132813,
2000-02-20, 02:46:00,VALID,0,VALID,77.0325,VALID,0.0679233,VALID,19.899,VALID,269,VALID,0,
2000-02-20, 02:47:00,VALID,0,VALID,76.6612,VALID,0.0339617,VALID,19.9025,VALID,269,VALID,0,
2000-02-20, 02:48:00,VALID,0,VALID,75.5727,VALID,0.0849042,VALID,19.854,VALID,269,VALID,0,
2000-02-20, 02:49:00,VALID,0,VALID,75.0526,VALID,0.0339617,VALID,19.8217,VALID,269,VALID,0,
2000-02-20, 02:50:00,VALID,0,VALID,75.2943,VALID,0.0169808,VALID,19.7959,VALID,269,VALID,0,
2000-02-20, 02:51:00,VALID,0,VALID,75.8003,VALID,0.0339617,VALID,19.7991,VALID,269,VALID,0,
2000-02-20, 02:52:00,VALID,0,VALID,76.1958,VALID,0.0339617,VALID,19.7827,VALID,269,VALID,0,
2000-02-20, 02:53:00,VALID,0,VALID,75.7686,VALID,0.0679233,VALID,19.779,VALID,269,VALID,0,
2000-02-20, 02:54:00,VALID,0,VALID,75.3769,VALID,0.0509425,VALID,19.8898,VALID,280,VALID,0,
2000-02-20, 02:55:00,VALID,0,VALID,80.916,VALID,0.0169808,VALID,19.9087,VALID,314,VALID,0.0557155,
2000-02-20, 02:56:00,VALID,0,VALID,79.0201,VALID,0.0339617,VALID,19.7149,VALID,78,VALID,0.494243,
2000-02-20, 02:57:00,VALID,0,VALID,79.268,VALID,0,VALID,19.5703,VALID,81,VALID,0.636624,
2000-02-20, 02:58:00,VALID,0,VALID,78.6856,VALID,0.0339617,VALID,19.4217,VALID,78,VALID,0.670703,
2000-02-20, 02:59:00,VALID,0,VALID,78.2329,VALID,0.0509425,VALID,19.3921,VALID,80,VALID,0.449219,
2000-02-20, 03:00:00,VALID,0,VALID,78.1999,VALID,0.0339617,VALID,19.4277,VALID,81,VALID,0.250195,
2000-02-20, 03:01:00,VALID,0,VALID,79.2133,VALID,0.0509425,VALID,19.4629,VALID,83,VALID,0.0425347,
2000-02-20, 03:02:00,VALID,0,VALID,77.4827,VALID,0.0169808,VALID,19.4498,VALID,90,VALID,0,
2000-02-20, 03:03:00,VALID,0,VALID,78.0104,VALID,0.0169808,VALID,19.46,VALID,238,VALID,0.374199,
2000-02-20, 03:04:00,VALID,0,VALID,77.091,VALID,0.0679233,VALID,19.4634,VALID,241,VALID,0.333676,
2000-02-20, 03:05:00,VALID,0,VALID,76.6282,VALID,0.0339617,VALID,19.4791,VALID,248,VALID,0.623481,
2000-02-20, 03:06:00,VALID,0,VALID,76.2848,VALID,0.0509425,VALID,19.5241,VALID,247,VALID,0.377679,
2000-02-20, 03:07:00,VALID,0,VALID,77.882,VALID,0.0339617,VALID,19.5765,VALID,238,VALID,0.102179,
2000-02-20, 03:08:00,VALID,0,VALID,79.4944,VALID,0.0679233,VALID,19.5732,VALID,236,VALID,0.164063,
2000-02-20, 03:09:00,VALID,0,VALID,80.3616,VALID,0,VALID,19.4987,VALID,236,VALID,0,
2000-02-20, 03:10:00,VALID,0,VALID,78.8662,VALID,0,VALID,19.447,VALID,236,VALID,0.0433799,
2000-02-20, 03:11:00,VALID,0,VALID,77.7802,VALID,0.0509425,VALID,19.4341,VALID,236,VALID,0,
2000-02-20, 03:12:00,VALID,0,VALID,77.8616,VALID,-0.0169808,VALID,19.415,VALID,236,VALID,0,
2000-02-20, 03:13:00,VALID,0,VALID,79.31,VALID,-0.0849042,VALID,19.4259,VALID,236,VALID,0,
2000-02-20, 03:14:00,VALID,0,VALID,77.0071,VALID,-0.0339617,VALID,19.4224,VALID,236,VALID,0,
2000-02-20, 03:15:00,VALID,0,VALID,77.5666,VALID,-0.0679233,VALID,19.4676,VALID,236,VALID,0,
2000-02-20, 03:16:00,VALID,0,VALID,80.8613,VALID,-0.0849042,VALID,19.4776,VALID,236,VALID,0,
2000-02-20, 03:17:00,VALID,0,VALID,77.8603,VALID,-0.101885,VALID,19.4811,VALID,236,VALID,0,
2000-02-20, 03:18:00,VALID,0,VALID,77.3682,VALID,-0.0849042,VALID,19.4743,VALID,236,VALID,0,
2000-02-20, 03:19:00,VALID,0,VALID,80.3069,VALID,-0.0679233,VALID,19.4614,VALID,236,VALID,0,
2000-02-20, 03:20:00,VALID,0,VALID,80.3654,VALID,-0.0849042,VALID,19.4356,VALID,236,VALID,0,
2000-02-20, 03:21:00,VALID,0,VALID,76.2874,VALID,-0.0679233,VALID,19.4224,VALID,236,VALID,0,
2000-02-20, 03:22:00,VALID,0,VALID,77.6264,VALID,-0.0509425,VALID,19.487,VALID,236,VALID,0,
2000-02-20, 03:23:00,VALID,0,VALID,76.1093,VALID,-0.0679233,VALID,19.5226,VALID,236,VALID,0,
2000-02-20, 03:24:01,VALID,0,VALID,79.961,VALID,-0.0679233,VALID,19.5777,VALID,236,VALID,0,
2000-02-20, 03:25:00,VALID,0,VALID,80.1467,VALID,-0.0849042,VALID,19.5096,VALID,236,VALID,0,
2000-02-20, 03:26:00,VALID,0,VALID,77.0465,VALID,-0.101885,VALID,19.4324,VALID,236,VALID,0,
2000-02-20, 03:27:00,VALID,0,VALID,77.1508,VALID,-0.0339617,VALID,19.4577,VALID,173,VALID,0,
2000-02-20, 03:28:00,VALID,0,VALID,80.2319,VALID,0.0339617,VALID,19.4403,VALID,135,VALID,0,
2000-02-20, 03:29:00,VALID,0,VALID,79.4549,VALID,0.0339617,VALID,19.376,VALID,132,VALID,0.0419408,
2000-02-20, 03:30:00,VALID,0,VALID,82.5424,VALID,0.0169808,VALID,19.3211,VALID,121,VALID,0.593555,
2000-02-20, 03:31:00,VALID,0,VALID,82.8984,VALID,0.0509425,VALID,19.2207,VALID,117,VALID,0.672743,
2000-02-20, 03:32:00,VALID,0,VALID,81.1919,VALID,0.0509425,VALID,19.1174,VALID,112,VALID,0.539648,
2000-02-20, 03:33:00,VALID,0,VALID,82.9608,VALID,0.0509425,VALID,19.0818,VALID,112,VALID,0.377204,
2000-02-20, 03:34:01,VALID,0,VALID,82.0948,VALID,0.0509425,VALID,19.0334,VALID,116,VALID,0,
2000-02-20, 03:35:00,VALID,0,VALID,81.8328,VALID,0.0849042,VALID,19.0369,VALID,116,VALID,0,
2000-02-20, 03:36:00,VALID,0,VALID,82.0121,VALID,0.0679233,VALID,19.0202,VALID,158,VALID,0.0319196,
2000-02-20, 03:37:00,VALID,0,VALID,84.6215,VALID,0.0849042,VALID,19.0269,VALID,173,VALID,0,
2000-02-20, 03:38:00,VALID,0,VALID,84.3036,VALID,0.0509425,VALID,18.9812,VALID,173,VALID,0,
2000-02-20, 03:39:00,VALID,0,VALID,84.6304,VALID,0.0509425,VALID,18.972,VALID,173,VALID,0,
2000-02-20, 03:40:00,VALID,0,VALID,82.5475,VALID,0.0679233,VALID,18.9561,VALID,173,VALID,0,
2000-02-20, 03:41:00,VALID,0,VALID,82.6759,VALID,0.0169808,VALID,18.9559,VALID,173,VALID,0,
2000-02-20, 03:42:00,VALID,0,VALID,82.9162,VALID,0.0339617,VALID,18.9698,VALID,173,VALID,0,
2000-02-20, 03:43:00,VALID,0,VALID,82.5971,VALID,-0.0679233,VALID,18.9861,VALID,178,VALID,0,
2000-02-20, 03:44:00,VALID,0,VALID,82.8323,VALID,-0.0339617,VALID,18.9764,VALID,198,VALID,0.30736,
2000-02-20, 03:45:00,VALID,0,VALID,82.3186,VALID,-0.0849042,VALID,18.9836,VALID,203,VALID,0.286914,
2000-02-20, 03:46:01,VALID,0,VALID,82.8552,VALID,-0.0509425,VALID,18.9575,VALID,203,VALID,0.0327691,
2000-02-20, 03:47:00,VALID,0,VALID,83.7466,VALID,-0.0509425,VALID,18.9449,VALID,203,VALID,0,
2000-02-20, 03:48:00,VALID,0,VALID,83.9908,VALID,-0.0679233,VALID,18.9319,VALID,203,VALID,0,
2000-02-20, 03:49:00,VALID,0,VALID,82.5233,VALID,-0.0849042,VALID,18.9031,VALID,203,VALID,0,
2000-02-20, 03:50:00,VALID,0,VALID,82.2843,VALID,-0.0339617,VALID,18.8835,VALID,203,VALID,0,
2000-02-20, 03:51:00,VALID,0,VALID,81.8824,VALID,-0.0849042,VALID,18.8669,VALID,203,VALID,0,
2000-02-20, 03:52:00,VALID,0,VALID,84.7753,VALID,-0.0849042,VALID,18.8999,VALID,197,VALID,0,
2000-02-20, 03:53:00,VALID,0,VALID,86.6624,VALID,-0.0849042,VALID,18.8517,VALID,135,VALID,0.157895,
2000-02-20, 03:54:00,VALID,0,VALID,87.0477,VALID,-0.0679233,VALID,18.7285,VALID,102,VALID,0.206926,
2000-02-20, 03:55:00,VALID,0,VALID,84.4282,VALID,-0.0849042,VALID,18.648,VALID,102,VALID,0.119449,
2000-02-20, 03:56:00,VALID,0,VALID,85.565,VALID,-0.0509425,VALID,18.6351,VALID,104,VALID,0,
2000-02-20, 03:57:01,VALID,0,VALID,85.4149,VALID,-0.0509425,VALID,18.6115,VALID,107,VALID,0,
2000-02-20, 03:58:00,VALID,0,VALID,86.1614,VALID,0.0339617,VALID,18.6272,VALID,108,VALID,0.481445,
2000-02-20, 03:59:00,VALID,0,VALID,87.522,VALID,0.0509425,VALID,18.5882,VALID,107,VALID,0.698396,
2000-02-20, 04:00:00,VALID,0,VALID,85.6337,VALID,0.0679233,VALID,18.5398,VALID,113,VALID,0.584375,
2000-02-20, 04:01:00,VALID,0,VALID,84.2527,VALID,0.0509425,VALID,18.5621,VALID,127,VALID,0.287543,
2000-02-20, 04:02:00,VALID,0,VALID,85.1021,VALID,0.0339617,VALID,18.65,VALID,125,VALID,0,
2000-02-20, 04:03:00,VALID,0,VALID,83.4211,VALID,0.0679233,VALID,18.698,VALID,147,VALID,0,
2000-02-20, 04:04:00,VALID,0,VALID,83.2316,VALID,0.0339617,VALID,18.782,VALID,147,VALID,0.327919,
2000-02-20, 04:05:00,VALID,0,VALID,83.9335,VALID,0.0679233,VALID,18.8632,VALID,128,VALID,0.568359,
2000-02-20, 04:06:00,VALID,0,VALID,83.6614,VALID,0.0679233,VALID,18.898,VALID,147,VALID,0.35625,
2000-02-20, 04:07:00,VALID,0,VALID,82.2715,VALID,0.0169808,VALID,18.9241,VALID,124,VALID,0.424137,
2000-02-20, 04:08:01,VALID,0,VALID,80.7774,VALID,0.0339617,VALID,19.0013,VALID,107,VALID,0.521587,
2000-02-20, 04:09:00,VALID,0,VALID,81.81,VALID,0.0339617,VALID,19.1054,VALID,116,VALID,0.476563,
2000-02-20, 04:10:00,VALID,0,VALID,81.7489,VALID,0.0339617,VALID,19.1278,VALID,119,VALID,0.471628,
2000-02-20, 04:11:00,VALID,0,VALID,81.4475,VALID,0.0339617,VALID,19.1111,VALID,127,VALID,0.383429,
2000-02-20, 04:12:00,VALID,0,VALID,79.8657,VALID,0,VALID,19.1349,VALID,129,VALID,0.0752668,